[[{"header":{"parameterUnit":"m.s-1","parameterCategory":1,"la1":30.2991,"la2":30.254,"lo1":-89.0895,"lo2":-89.0444,"dy":0.0017,"dx":0.0017,"nx":28,"ny":28,"refTime":"2023-09-17T03:00:00:Z","depth":0,"parameterNumber":2,"parameterNumberName":"U-component_of_WINDS"},"data":[0,0,0,0,0,0,0,0,0,0,0,0,0,0,0,0,0,0,0,0,0,0,0,0,0,0,0,0,0,0,0,0,0,0,0,0,0,0,0,0,0,0,0,0,0,0,0,0,0,0,0,0,0,0,0,0,0,0,-1.9802,-1.9802,0,-1.9786,-1.9786,-1.9786,-1.972,-1.9718,-1.9717,-1.9715,-1.9699,-1.97,-1.9701,0,0,0,0,0,0,0,0,0,0,0,0,0,-1.9778,-1.9779,-1.9802,-1.9802,-1.9802,-1.9786,-1.9786,-1.9786,-1.972,-1.9718,-1.9716,-1.9715,-1.9699,-1.97,-1.9701,0,0,0,0,0,0,0,0,0,0,0,0,0,-1.9778,-1.9779,-1.9803,-1.9767,-1.9764,-1.9786,-1.9786,-1.9785,-1.972,-1.9718,-1.9716,-1.9714,-1.9698,-1.97,-1.9701,-1.9756,0,0,-1.9706,-1.9706,0,0,0,0,0,0,0,0,-1.9778,-1.9779,-1.9773,-1.977,-1.9766,-1.9753,-1.9771,-1.9776,-1.9721,-1.9737,-1.9715,-1.9713,-1.9719,-1.9718,-1.972,-1.9755,-1.9754,-1.9706,-1.9707,-1.9707,-1.9708,0,0,0,0,0,0,0,-1.9778,-1.9779,-1.9796,-1.9773,-1.9769,-1.9753,-1.975,-1.9772,-1.9741,-1.9735,-1.9731,-1.973,-1.9716,-1.9719,-1.9719,-1.9754,-1.9706,-1.9707,-1.9708,-1.9708,-1.9834,-1.9837,0,0,0,0,0,0,-1.9783,-1.978,-1.9796,-1.9795,-1.9767,-1.9755,-1.9752,-1.9759,-1.974,-1.9735,-1.9731,-1.9726,-1.9718,-1.9718,-1.9718,-1.9782,-1.9707,-1.9709,-1.9709,-1.9832,-1.9835,-1.9837,0,0,0,0,0,0,-1.9783,-1.9785,-1.9797,-1.9786,-1.9787,-1.9758,-1.9766,-1.976,-1.9763,-1.9737,-1.9732,-1.974,-1.9716,-1.9716,-1.9747,-1.9781,-1.9709,-1.9711,-1.9829,-1.9833,-1.9836,-1.991,0,0,0,0,0,0,-1.9782,-1.9785,-1.9806,-1.9787,-1.9787,-1.9826,-1.9768,-1.9761,-1.9765,-1.9759,-1.9744,-1.9739,-1.9714,-1.9745,-1.9749,-1.9781,-1.9712,-1.9826,-1.9831,-1.9835,-1.9904,-1.9916,-1.9925,0,0,0,0,0,-1.9782,-1.9827,-1.9807,-1.9809,-1.9812,-1.9828,-1.9828,-1.9798,-1.9768,-1.9789,-1.9773,-1.9739,-1.9776,-1.9749,-1.9752,-1.9786,-1.9823,-1.9829,-1.9835,-1.99,-1.9913,-1.9925,0,0,0,0,0,0,-1.985,-1.9824,-1.9801,-1.9842,-1.9838,-1.9817,-1.9842,-1.9814,-1.9818,-1.9812,-1.9775,-1.9772,-1.9809,-1.98,-1.977,-1.9839,-1.9794,-1.9801,-1.9843,-1.9856,-1.9866,-1.9868,-1.9713,0,0,0,0,0,-1.987,-1.9885,-1.9861,-1.9899,-1.9898,-1.9871,-1.9876,-1.9854,-1.9848,-1.9846,-1.9832,-1.9828,-1.9839,-1.9847,-1.9855,-1.9903,-1.9899,-1.9927,-1.9938,-1.9947,-1.9953,-1.9979,-1.9992,-1.9856,-1.9855,-1.9855,0,0,-1.9911,-1.9898,-1.991,-1.9913,-1.9907,-1.9924,-1.9869,-1.9889,-1.9902,-1.9849,-1.9878,-1.9867,-1.986,-1.99,-1.9917,-1.9894,-1.999,-1.9954,-1.9961,-1.9962,-1.9986,-1.9999,-2.001,-1.9859,-1.9859,-1.9858,0,0,-1.9994,-1.9986,-2.0017,-2.0013,-2.0004,-1.9986,-1.9994,-1.9977,-1.9969,-1.9996,-1.9958,-1.9972,-1.9991,-1.9988,-1.9989,-2.0073,-2.0043,-2.0076,-2.0131,-2.0157,-2.0168,-2.0177,-2.0208,-2.022,-2.0082,-2.0083,-2.0083,0,-2.0046,-2.007,-2.0037,-2.006,-2.0063,-2.0016,-2.0048,-2.0045,-2.004,-2.0043,-2.0018,-2.0041,-2.0033,-2.0072,-2.0093,-2.0095,-2.0103,-2.0078,-2.0169,-2.0178,-2.0186,-2.0215,-2.0227,-2.0087,-2.0086,-2.0086,-2.0086,0,-2.0135,-2.0152,-2.0178,-2.0175,-2.0181,-2.0208,-2.018,-2.019,-2.0167,-2.0151,-2.0181,-2.017,-2.0176,-2.0183,-2.0161,-2.022,-2.0206,-2.0175,-2.013,-2.0204,-2.0231,-2.0242,-2.0093,-2.0091,-2.009,-2.0089,0,0,-2.0261,-2.024,-2.025,-2.0249,-2.0237,-2.0249,-2.0275,-2.0281,-2.0291,-2.0289,-2.031,-2.0328,-2.03,-2.0301,-2.0278,-2.03,-2.0369,-2.0267,-2.0266,-2.0287,-2.0434,-2.0459,-2.0472,-2.0349,-2.0351,-2.0352,-2.0435,0,-2.0341,-2.0384,-2.0355,-2.0403,-2.0419,-2.0375,-2.0397,-2.0393,-2.0379,-2.0391,-2.0376,-2.039,-2.0351,-2.0351,-2.0371,-2.0356,-2.0398,-2.035,-2.0369,-2.037,-2.0373,-2.0486,-2.0511,-2.059,-2.0446,-2.0447,-2.0449,0,-2.044,-2.0444,-2.0493,-2.0479,-2.0485,-2.0506,-2.0509,-2.0521,-2.0515,-2.0504,-2.0506,-2.0478,-2.0502,-2.0458,-2.0492,-2.046,-2.0466,-2.046,-2.0462,-2.0464,-2.0415,-2.0491,-2.0614,-2.0627,-2.0465,-2.0463,-2.0462,0,-2.0529,-2.0546,-2.0578,-2.0578,-2.0562,-2.0578,-2.0572,-2.0564,-2.057,-2.0573,-2.0577,-2.0583,-2.0586,-2.0592,-2.0566,-2.0536,-2.0605,-2.0557,-2.0597,-2.0597,-2.0614,-2.0613,-2.074,-2.0616,-2.0616,-2.0616,-2.0615,0,-2.0622,-2.0655,-2.0618,-2.0637,-2.0672,-2.064,-2.0675,-2.0665,-2.0658,-2.0676,-2.0638,-2.0655,-2.062,-2.0634,-2.0614,-2.0646,-2.0647,-2.0639,-2.0634,-2.0643,-2.0645,-2.0648,-2.0642,-2.0619,-2.0618,-2.0617,-2.0617,0,-2.0727,-2.0704,-2.0736,-2.0719,-2.0715,-2.0742,-2.0727,-2.0745,-2.0729,-2.0752,-2.0755,-2.073,-2.0744,-2.0719,-2.073,-2.0717,-2.0762,-2.0748,-2.0764,-2.0761,-2.0802,-2.0799,-2.0936,-2.0953,-2.0817,-2.0818,-2.0819,0,-2.0789,-2.0813,-2.0799,-2.0808,-2.0804,-2.0819,-2.0825,-2.0794,-2.0802,-2.0798,-2.0816,-2.0828,-2.0835,-2.086,-2.0843,-2.0852,-2.0838,-2.0886,-2.0839,-2.0848,-2.084,-2.084,-2.0842,-2.0895,-2.0897,-2.0898,-2.09,0,-2.0902,-2.0889,-2.0899,-2.0906,-2.0914,-2.0917,-2.0918,-2.0927,-2.0895,-2.0905,-2.092,-2.0926,-2.0937,-2.095,-2.0954,-2.0948,-2.0919,-2.0914,-2.0924,-2.0934,-2.0944,-2.0941,-2.0792,-2.0911,-2.091,-2.0909,-2.0909,-2.0908,-2.0987,-2.1007,-2.1001,-2.1013,-2.1011,-2.1013,-2.1029,-2.1015,-2.1027,-2.1034,-2.1015,-2.1034,-2.1029,-2.1032,-2.103,-2.1045,-2.1024,-2.1037,-2.1041,-2.1045,-2.1053,-2.0941,-2.1045,-2.1045,-2.1045,-2.1044,-2.1044,0,-2.1099,-2.1093,-2.1105,-2.1107,-2.1118,-2.1089,-2.1089,-2.1099,-2.1117,-2.1114,-2.1123,-2.114,-2.1152,-2.1136,-2.1145,-2.116,-2.1147,-2.1164,-2.1163,-2.1163,-2.107,-2.1061,-2.1175,-2.1175,-2.1175,-2.1175,-2.1174,-2.1174,-2.1158,-2.1191,-2.1178,-2.1209,-2.1202,-2.1221,-2.1223,-2.1225,-2.1223,-2.1244,-2.1254,-2.1243,-2.1236,-2.1244,-2.1254,-2.1249,-2.1255,-2.1277,-2.1267,-2.1182,-2.1169,-2.1157,-2.1148,-2.1278,-2.1278,-2.1359,-2.1359,-2.136]},{"header":{"parameterUnit":"m.s-1","parameterCategory":1,"la1":30.2991,"la2":30.254,"lo1":-89.0895,"lo2":-89.0444,"dy":0.0017,"dx":0.0017,"nx":28,"ny":28,"refTime":"2023-09-17T03:00:00:Z","depth":0,"parameterNumber":3,"parameterNumberName":"V-component_of_WINDS"},"data":[0,0,0,0,0,0,0,0,0,0,0,0,0,0,0,0,0,0,0,0,0,0,0,0,0,0,0,0,0,0,0,0,0,0,0,0,0,0,0,0,0,0,0,0,0,0,0,0,0,0,0,0,0,0,0,0,0,0,-2.1656,-2.1657,0,-2.1692,-2.1693,-2.1693,-2.1659,-2.1657,-2.1656,-2.1655,-2.1692,-2.1694,-2.1696,0,0,0,0,0,0,0,0,0,0,0,0,0,-2.1558,-2.156,-2.1656,-2.1657,-2.1657,-2.1692,-2.1693,-2.1693,-2.1659,-2.1657,-2.1656,-2.1654,-2.1691,-2.1694,-2.1697,0,0,0,0,0,0,0,0,0,0,0,0,0,-2.1598,-2.1561,-2.1656,-2.1644,-2.1644,-2.1692,-2.1693,-2.1693,-2.1659,-2.1657,-2.1655,-2.1653,-2.169,-2.1694,-2.1697,-2.1759,0,0,-2.1707,-2.1709,0,0,0,0,0,0,0,0,-2.1596,-2.1602,-2.1646,-2.1645,-2.1645,-2.1669,-2.1672,-2.1715,-2.166,-2.1653,-2.1655,-2.1652,-2.1686,-2.169,-2.1701,-2.1761,-2.1762,-2.1708,-2.171,-2.1711,-2.1712,0,0,0,0,0,0,0,-2.1593,-2.16,-2.167,-2.1646,-2.1646,-2.1637,-2.1641,-2.168,-2.1681,-2.1654,-2.1651,-2.1656,-2.1685,-2.1698,-2.1701,-2.1763,-2.1708,-2.1711,-2.1713,-2.1714,-2.1876,-2.1878,0,0,0,0,0,0,-2.1592,-2.1598,-2.1669,-2.1671,-2.1615,-2.1641,-2.1645,-2.1663,-2.168,-2.1681,-2.1658,-2.1654,-2.1693,-2.1698,-2.1703,-2.1777,-2.1711,-2.1714,-2.1716,-2.1873,-2.1876,-2.1879,0,0,0,0,0,0,-2.159,-2.1598,-2.1668,-2.1634,-2.1642,-2.1645,-2.1666,-2.1665,-2.1677,-2.1683,-2.1683,-2.167,-2.1691,-2.1698,-2.1745,-2.1778,-2.1716,-2.1719,-2.1871,-2.1874,-2.1877,-2.1926,0,0,0,0,0,0,-2.1587,-2.1598,-2.1622,-2.1635,-2.1644,-2.171,-2.1668,-2.1667,-2.1683,-2.1679,-2.1695,-2.1696,-2.169,-2.174,-2.1749,-2.1781,-2.1722,-2.1868,-2.1872,-2.1876,-2.1922,-2.1931,-2.1939,0,0,0,0,0,-2.1584,-2.1634,-2.1623,-2.1632,-2.1674,-2.1712,-2.1717,-2.171,-2.1686,-2.171,-2.1714,-2.1695,-2.1773,-2.1745,-2.1754,-2.1789,-2.1866,-2.1871,-2.1876,-2.1918,-2.1929,-2.1938,0,0,0,0,0,0,-2.1624,-2.1635,-2.1623,-2.1679,-2.1695,-2.1706,-2.1736,-2.1722,-2.1745,-2.174,-2.173,-2.1734,-2.1784,-2.1791,-2.1761,-2.185,-2.1815,-2.1822,-2.1844,-2.1855,-2.1863,-2.1861,-2.1724,0,0,0,0,0,-2.1639,-2.167,-2.1677,-2.1726,-2.1734,-2.1734,-2.175,-2.1743,-2.1759,-2.1766,-2.1773,-2.1789,-2.1817,-2.1836,-2.1862,-2.1922,-2.1925,-2.195,-2.1958,-2.1965,-2.1972,-2.2005,-2.2016,-2.1895,-2.1895,-2.1895,0,0,-2.1672,-2.1681,-2.1701,-2.1734,-2.1746,-2.1777,-2.174,-2.1775,-2.1798,-2.1771,-2.1817,-2.1822,-2.184,-2.1894,-2.1918,-2.1901,-2.2006,-2.1972,-2.1977,-2.198,-2.2011,-2.2023,-2.2033,-2.1899,-2.1898,-2.1898,0,0,-2.1747,-2.1757,-2.1799,-2.1811,-2.1828,-2.1828,-2.1838,-2.1851,-2.1854,-2.1899,-2.188,-2.1907,-2.1956,-2.1969,-2.1983,-2.2062,-2.2047,-2.2071,-2.2116,-2.2148,-2.2158,-2.2166,-2.2196,-2.2207,-2.2077,-2.2078,-2.2078,0,-2.1785,-2.1832,-2.1822,-2.1859,-2.1874,-2.1851,-2.1893,-2.1905,-2.1931,-2.1942,-2.1922,-2.1983,-2.1993,-2.205,-2.207,-2.2081,-2.2092,-2.207,-2.2157,-2.2166,-2.2173,-2.2202,-2.2213,-2.2081,-2.208,-2.208,-2.208,0,-2.1878,-2.1911,-2.1943,-2.1968,-2.1987,-2.2026,-2.2023,-2.2043,-2.2034,-2.2035,-2.2082,-2.2093,-2.2121,-2.2134,-2.2125,-2.2191,-2.218,-2.2159,-2.2124,-2.2188,-2.2215,-2.2225,-2.2085,-2.2084,-2.2083,-2.2082,0,0,-2.1981,-2.2,-2.2012,-2.2024,-2.2041,-2.2066,-2.2105,-2.2132,-2.215,-2.2168,-2.2201,-2.2242,-2.2223,-2.2238,-2.223,-2.2259,-2.2323,-2.2234,-2.2235,-2.2252,-2.2397,-2.2414,-2.2426,-2.2312,-2.2314,-2.2315,-2.2396,0,-2.2058,-2.2125,-2.2117,-2.2181,-2.2212,-2.219,-2.2223,-2.2237,-2.224,-2.2266,-2.2268,-2.2298,-2.227,-2.2279,-2.2305,-2.2309,-2.2352,-2.2303,-2.2343,-2.2344,-2.2341,-2.244,-2.2458,-2.2533,-2.2406,-2.2407,-2.2409,0,-2.2157,-2.2179,-2.2246,-2.226,-2.2272,-2.2302,-2.2327,-2.2352,-2.2368,-2.2368,-2.2385,-2.2372,-2.2411,-2.2374,-2.2428,-2.2395,-2.241,-2.2415,-2.2417,-2.2422,-2.2382,-2.2449,-2.2557,-2.2569,-2.2425,-2.2423,-2.2422,0,-2.2228,-2.2273,-2.232,-2.233,-2.2346,-2.2368,-2.2376,-2.239,-2.2407,-2.2429,-2.244,-2.2465,-2.248,-2.25,-2.2495,-2.2469,-2.2551,-2.2513,-2.2552,-2.2553,-2.2572,-2.2571,-2.2686,-2.2579,-2.2579,-2.2579,-2.2579,0,-2.2316,-2.2358,-2.2352,-2.2381,-2.2428,-2.2418,-2.2465,-2.2469,-2.2482,-2.2511,-2.2493,-2.2521,-2.2512,-2.254,-2.2536,-2.2582,-2.2588,-2.2589,-2.2588,-2.2592,-2.2592,-2.2603,-2.2599,-2.2582,-2.2581,-2.2581,-2.258,0,-2.2403,-2.24,-2.245,-2.2461,-2.2465,-2.2499,-2.2509,-2.2536,-2.2536,-2.2574,-2.2582,-2.2582,-2.2614,-2.2611,-2.2646,-2.2643,-2.2701,-2.2692,-2.2696,-2.2694,-2.2734,-2.2731,-2.2862,-2.2879,-2.2759,-2.2761,-2.2761,0,-2.246,-2.2492,-2.2507,-2.2526,-2.2535,-2.2565,-2.2582,-2.2573,-2.2592,-2.2613,-2.2638,-2.2668,-2.2691,-2.2743,-2.2747,-2.2774,-2.2767,-2.2811,-2.2771,-2.2774,-2.277,-2.2769,-2.2773,-2.2819,-2.2821,-2.2822,-2.2823,0,-2.2563,-2.256,-2.2586,-2.2612,-2.2633,-2.2653,-2.2671,-2.2687,-2.268,-2.2702,-2.2734,-2.2752,-2.2788,-2.2819,-2.2844,-2.2852,-2.2837,-2.2835,-2.2846,-2.2851,-2.2852,-2.2854,-2.2719,-2.2832,-2.2831,-2.2831,-2.283,-2.283,-2.2638,-2.2666,-2.2681,-2.271,-2.2723,-2.274,-2.2766,-2.277,-2.2796,-2.2825,-2.2818,-2.2855,-2.287,-2.2902,-2.2913,-2.2942,-2.2926,-2.2941,-2.2945,-2.295,-2.2955,-2.2846,-2.2946,-2.2946,-2.2945,-2.2945,-2.2945,0,-2.2741,-2.2749,-2.2776,-2.2802,-2.2826,-2.2808,-2.2827,-2.2848,-2.288,-2.2895,-2.2919,-2.2956,-2.2986,-2.2991,-2.3019,-2.3041,-2.3035,-2.3049,-2.3048,-2.3051,-2.2967,-2.2956,-2.3054,-2.3054,-2.3054,-2.3054,-2.3054,-2.3054,-2.2797,-2.2844,-2.2843,-2.2896,-2.2903,-2.2939,-2.2952,-2.2968,-2.298,-2.3022,-2.3047,-2.305,-2.3062,-2.309,-2.3116,-2.3117,-2.3129,-2.3147,-2.3145,-2.3067,-2.3056,-2.3046,-2.3036,-2.3149,-2.3149,-2.3227,-2.3227,-2.3228]}]]